Change the Weather History Date:

Wednesday, September 25, 2013

  Actual Average Record
Temperature  
Mean Temperature 64 °F -  
Max Temperature 73 °F 86 °F 103 °F (1936)
Min Temperature 55 °F 57 °F 41 °F (1948)
Degree Days  
Heating Degree Days 1    
Growing Degree Days 14 (Base 50)    
Moisture  
Dew Point 44 °F    
Average Humidity 48    
Maximum Humidity 67    
Minimum Humidity 33    
Precipitation  
Precipitation 0.00 in - - ()
Sea Level Pressure  
Sea Level Pressure 29.83 in    
Wind  
Wind Speed 12 mph (NW)    
Max Wind Speed 18 mph    
Max Gust Speed 23 mph    
Visibility 10 miles    
Events      
Averages and records for this station are not official NWS values.
T = Trace of Precipitation, MM = Missing Value Source: NWS Daily Summary

Daily Weather History Graph

Daily Weather History Graph

Search for Another Location

Airport or City:

Trip Planner

Search our weather history database for the weather conditions in past years. The results will help you decide how hot, cold, wet, or windy it might be!

Date:

Astronomy

Sep. 25, 2013 Rise Set
Actual Time 6:48 AM PDT 6:49 PM PDT
Civil Twilight 6:22 AM PDT 7:15 PM PDT
Nautical Twilight 5:52 AM PDT 7:44 PM PDT
Astronomical Twilight 5:22 AM PDT 8:15 PM PDT
Moon 11:08 PM PDT (9/25) 12:48 PM PDT (9/25)
Length of Visible Light 12h 52m
Length of Day
12h 01m
Waning Gibbous, 63% of the Moon is Illuminated
Sep 25
Waning Gibbous
Sep 26
Last Quarter
Oct 4
New
Oct 11
First Quarter
Oct 18
Full

Hourly Weather History & Observations

Time (PDT) Temp. Dew Point Humidity Pressure Visibility Wind Dir Wind Speed Gust Speed Precip Events Conditions
12:15 AM 66.2 °F 44.6 °F 46% 29.84 in 10.0 mi NNW 16.1 mph - N/A   Clear
12:35 AM 66.2 °F 44.6 °F 46% 29.84 in 10.0 mi NNW 13.8 mph - N/A   Clear
12:55 AM 66.2 °F 44.6 °F 46% 29.84 in 10.0 mi NNW 13.8 mph - N/A   Clear
1:15 AM 64.4 °F 44.6 °F 49% 29.84 in 10.0 mi NNW 9.2 mph - N/A   Clear
1:35 AM 64.4 °F 44.6 °F 49% 29.84 in 10.0 mi NNW 9.2 mph - N/A   Clear
1:55 AM 64.4 °F 46.4 °F 52% 29.84 in 10.0 mi NW 11.5 mph - N/A   Clear
2:15 AM 62.6 °F 46.4 °F 55% 29.84 in 10.0 mi NW 15.0 mph - N/A   Clear
2:35 AM 62.6 °F 46.4 °F 55% 29.84 in 10.0 mi NW 15.0 mph 23.0 mph N/A   Clear
2:55 AM 62.6 °F 44.6 °F 52% 29.85 in 10.0 mi NW 18.4 mph - N/A   Clear
3:15 AM 60.8 °F 44.6 °F 55% 29.85 in 10.0 mi NW 15.0 mph - N/A   Clear
3:35 AM 60.8 °F 46.4 °F 59% 29.86 in 10.0 mi NW 17.3 mph - N/A   Clear
3:55 AM 60.8 °F 44.6 °F 55% 29.85 in 10.0 mi NW 13.8 mph - N/A   Clear
4:15 AM 59.0 °F 44.6 °F 59% 29.86 in 10.0 mi NW 11.5 mph - N/A   Clear
4:35 AM 59.0 °F 44.6 °F 59% 29.86 in 10.0 mi NW 11.5 mph - N/A   Partly Cloudy
4:55 AM 59.0 °F 44.6 °F 59% 29.86 in 10.0 mi NW 10.4 mph - N/A   Mostly Cloudy
5:15 AM 59.0 °F 44.6 °F 59% 29.86 in 10.0 mi NW 9.2 mph - N/A   Overcast
5:35 AM 57.2 °F 44.6 °F 63% 29.87 in 10.0 mi WNW 10.4 mph - N/A   Scattered Clouds
5:55 AM 57.2 °F 44.6 °F 63% 29.87 in 10.0 mi WNW 6.9 mph - N/A   Mostly Cloudy
6:15 AM 57.2 °F 44.6 °F 63% 29.88 in 10.0 mi NW 8.1 mph - N/A   Mostly Cloudy
6:35 AM 55.4 °F 44.6 °F 67% 29.89 in 10.0 mi NW 6.9 mph - N/A   Scattered Clouds
6:55 AM 55.4 °F 44.6 °F 67% 29.89 in 10.0 mi NW 8.1 mph - N/A   Partly Cloudy
7:15 AM 55.4 °F 44.6 °F 67% 29.90 in 10.0 mi NW 6.9 mph - N/A   Scattered Clouds
7:35 AM 55.4 °F 44.6 °F 67% 29.90 in 10.0 mi NW 5.8 mph - N/A   Partly Cloudy
7:55 AM 55.4 °F 44.6 °F 67% 29.90 in 10.0 mi NW 6.9 mph - N/A   Clear
8:15 AM 57.2 °F 44.6 °F 63% 29.91 in 10.0 mi NNW 8.1 mph - N/A   Clear
8:35 AM 59.0 °F 44.6 °F 59% 29.91 in 10.0 mi NNW 11.5 mph - N/A   Clear
8:55 AM 60.8 °F 44.6 °F 55% 29.91 in 10.0 mi NNW 16.1 mph - N/A   Clear
9:15 AM 62.6 °F 44.6 °F 52% 29.91 in 10.0 mi North 15.0 mph 18.4 mph N/A   Clear
9:35 AM 62.6 °F 44.6 °F 52% 29.92 in 10.0 mi NNW 12.7 mph - N/A   Clear
9:55 AM 64.4 °F 44.6 °F 49% 29.92 in 10.0 mi NNW 13.8 mph - N/A   Clear
10:15 AM 64.4 °F 46.4 °F 52% 29.91 in 10.0 mi NNW 10.4 mph 16.1 mph N/A   Clear
10:35 AM 66.2 °F 44.6 °F 46% 29.91 in 10.0 mi NNW 10.4 mph - N/A   Clear
10:55 AM 66.2 °F 44.6 °F 46% 29.91 in 10.0 mi NW 12.7 mph 17.3 mph N/A   Clear
11:15 AM 68.0 °F 46.4 °F 46% 29.90 in 10.0 mi WNW 10.4 mph - N/A   Clear
11:35 AM 68.0 °F 46.4 °F 46% 29.89 in 10.0 mi NW 9.2 mph 16.1 mph N/A   Clear
11:55 AM 68.0 °F 46.4 °F 46% 29.88 in 10.0 mi NW 9.2 mph - N/A   Clear
12:15 PM 68.0 °F 46.4 °F 46% 29.87 in 10.0 mi NW 9.2 mph - N/A   Clear
12:35 PM 69.8 °F 46.4 °F 43% 29.86 in 10.0 mi West 9.2 mph 17.3 mph N/A   Clear
12:55 PM 71.6 °F 46.4 °F 41% 29.86 in 10.0 mi NNW 11.5 mph 16.1 mph N/A   Clear
1:15 PM 71.6 °F 46.4 °F 41% 29.85 in 10.0 mi NW 13.8 mph 18.4 mph N/A   Clear
1:35 PM 71.6 °F 46.4 °F 41% 29.84 in 5.0 mi WNW 9.2 mph 20.7 mph N/A   Clear
1:55 PM 71.6 °F 46.4 °F 41% 29.83 in 10.0 mi NW 11.5 mph - N/A   Partly Cloudy
2:15 PM 71.6 °F 46.4 °F 41% 29.82 in 10.0 mi NW 6.9 mph - N/A   Partly Cloudy
2:35 PM 73.4 °F 46.4 °F 38% 29.82 in 10.0 mi WNW 15.0 mph 19.6 mph N/A   Clear
2:55 PM 73.4 °F 44.6 °F 36% 29.81 in 10.0 mi NW 5.8 mph - N/A   Clear
3:15 PM 73.4 °F 46.4 °F 38% 29.80 in 10.0 mi NW 8.1 mph - N/A   Clear
3:35 PM 73.4 °F 44.6 °F 36% 29.79 in 10.0 mi North 12.7 mph 19.6 mph N/A   Clear
3:55 PM 73.4 °F 44.6 °F 36% 29.79 in 10.0 mi WNW 12.7 mph 17.3 mph N/A   Clear
4:15 PM 73.4 °F 44.6 °F 36% 29.78 in 10.0 mi NNW 9.2 mph 20.7 mph N/A   Clear
4:35 PM 73.4 °F 44.6 °F 36% 29.78 in 10.0 mi NW 12.7 mph - N/A   Clear
4:55 PM 73.4 °F 44.6 °F 36% 29.77 in 10.0 mi NNW 13.8 mph 18.4 mph N/A   Clear
5:15 PM 73.4 °F 42.8 °F 33% 29.76 in 10.0 mi NNW 15.0 mph - N/A   Clear
5:35 PM 73.4 °F 42.8 °F 33% 29.76 in 10.0 mi NW 11.5 mph - N/A   Clear
5:55 PM 71.6 °F 41.0 °F 33% 29.75 in 10.0 mi NNW 12.7 mph - N/A   Clear
6:15 PM 71.6 °F 41.0 °F 33% 29.75 in 10.0 mi NW 13.8 mph - N/A   Clear
6:35 PM 69.8 °F 39.2 °F 33% 29.74 in 10.0 mi NNW 10.4 mph - N/A   Clear
6:55 PM 69.8 °F 39.2 °F 33% 29.74 in 10.0 mi NW 8.1 mph - N/A   Clear
7:15 PM 66.2 °F 39.2 °F 37% 29.74 in 10.0 mi NW 9.2 mph - N/A   Clear
7:35 PM 66.2 °F 39.2 °F 37% 29.74 in 10.0 mi NW 9.2 mph - N/A   Clear
7:55 PM 64.4 °F 39.2 °F 40% 29.74 in 10.0 mi NW 10.4 mph - N/A   Clear
8:15 PM 62.6 °F 39.2 °F 42% 29.74 in 10.0 mi NW 10.4 mph - N/A   Clear
8:35 PM 62.6 °F 39.2 °F 42% 29.75 in 10.0 mi NW 11.5 mph - N/A   Clear
8:55 PM 62.6 °F 39.2 °F 42% 29.75 in 10.0 mi NW 10.4 mph - N/A   Clear
9:15 PM 60.8 °F 39.2 °F 45% 29.75 in 10.0 mi NW 10.4 mph - N/A   Clear
9:35 PM 60.8 °F 39.2 °F 45% 29.75 in 10.0 mi NW 10.4 mph - N/A   Clear
9:55 PM 60.8 °F 39.2 °F 45% 29.76 in 10.0 mi NW 10.4 mph - N/A   Clear
10:15 PM 60.8 °F 39.2 °F 45% 29.76 in 10.0 mi NW 9.2 mph - N/A   Clear
10:35 PM 59.0 °F 39.2 °F 48% 29.76 in 10.0 mi NW 8.1 mph - N/A   Clear
10:55 PM 57.2 °F 39.2 °F 51% 29.76 in 10.0 mi WNW 10.4 mph - N/A   Clear
11:15 PM 57.2 °F 39.2 °F 51% 29.76 in 10.0 mi NW 12.7 mph - N/A   Clear
11:35 PM 59.0 °F 39.2 °F 48% 29.77 in 10.0 mi NW 12.7 mph - N/A   Clear
11:55 PM 57.2 °F 41.0 °F 55% 29.77 in 10.0 mi NW 10.4 mph - N/A   Clear